Home > Weather > Stockport > Past weeks

Flag for United Kingdom Weather for the Past 2 Weeks in Stockport, England, United Kingdom

Now
52 °F

Mostly cloudy.


Feels Like: 47 °F
Forecast: 45 / 54 °F
Wind: 15 mph from South

Location: Manchester Airport

Current Time: May 1, 2016 at 10:58:08 PM

Latest Report: May 1, 2016 at 9:50 PM


Visibility: N/A

Pressure: 30.15 "Hg

Humidity: 88%

Dew Point: 48 °F

Location of StockportLocation

Historic Weather in Stockport — Graph

°F

Stockport Temperature Yesterday

Maximum temperature yesterday: 52 °F (at 3:50 PM)
Minimum temperature yesterday: 32 °F (at 2:50 AM)
Average temperature yesterday: 42 °F

High & Low Weather Summary for the Past Weeks

 TemperatureHumidityPressure
High63 °F (Apr 21, 2:50 PM)100% (Apr 17, 5:50 AM)30.48 "Hg (Apr 17, 5:50 AM)
Low28 °F (Apr 17, 5:20 AM)31% (Apr 20, 2:50 PM)29.65 "Hg (Apr 29, 3:20 AM)
Average44 °F71%30.07 "Hg
* Reported Apr 16 9:20 PM — May 1 9:20 PM, Stockport, Weather by CustomWeather, © 2016

Note: Actual official high and low records may vary slightly from our data, if they occured in-between our weather recording intervals... More about our weather records

Advertising

Stockport Weather History for the Previous 24 Hours

Scroll right to see more
 ConditionsComfort  
Time TempWeatherWind HumidityBarometerVisibility
9:20 PM
Sun, May 1
52 °FMostly cloudy.13 mph88%30.15 "HgN/A
8:50 PM52 °FBroken clouds.13 mph88%30.15 "HgN/A
8:20 PM52 °FPartly sunny.13 mph88%30.15 "HgN/A
7:50 PM52 °FOvercast.13 mph88%30.15 "HgN/A
7:20 PM52 °FPartly sunny.14 mph82%30.15 "HgN/A
6:50 PM52 °FPartly sunny.14 mph82%30.15 "HgN/A
6:20 PM52 °FOvercast.14 mph82%30.18 "HgN/A
5:50 PM52 °FPartly sunny.16 mph82%30.18 "HgN/A
5:20 PM50 °FPartly sunny.14 mph88%30.18 "HgN/A
4:50 PM50 °FPartly sunny.15 mph88%30.18 "HgN/A
4:20 PM50 °FPartly sunny.14 mph88%30.18 "HgN/A
3:50 PM50 °FPartly sunny.16 mph88%30.18 "HgN/A
3:20 PM50 °FBroken clouds.17 mph82%30.18 "HgN/A
2:50 PM50 °FPartly sunny.17 mph82%30.18 "HgN/A
2:20 PM50 °FLight rain. Broken clouds.16 mph88%30.21 "Hg5 mi
1:50 PM50 °FLight rain. Partly sunny.17 mph88%30.21 "HgN/A
1:20 PM50 °FLight rain. Cloudy.16 mph88%30.21 "HgN/A
12:50 PM50 °FLight rain. Scattered clouds.16 mph82%30.21 "HgN/A
12:20 PM48 °FLight rain. Passing clouds.17 mph82%30.21 "HgN/A
11:50 AM48 °FLight rain. Partly sunny.16 mph82%30.24 "HgN/A
11:20 AM48 °FLight rain. Partly sunny.17 mph76%30.24 "HgN/A
10:50 AM46 °FLight rain. Partly sunny.15 mph82%30.24 "HgN/A
10:20 AM48 °FScattered showers. Broken clouds.16 mph76%30.24 "HgN/A
9:50 AM48 °FScattered showers. Passing clouds.14 mph76%30.24 "HgN/A
9:20 AM46 °FScattered showers. Passing clouds.14 mph76%30.24 "HgN/A
8:50 AM45 °FPassing clouds.13 mph81%30.24 "HgN/A
8:20 AM45 °FSunny.13 mph81%30.24 "Hg10 mi
7:50 AM43 °FSunny.9 mph81%30.27 "Hg10 mi
7:20 AM43 °FSunny.10 mph81%30.27 "Hg10 mi
6:50 AM41 °FSunny.10 mph81%30.24 "Hg10 mi
6:20 AM41 °FClear.13 mph81%30.24 "Hg10 mi
5:20 AM39 °FClear.10 mph81%30.24 "Hg10 mi
4:50 AM39 °FClear.9 mph81%30.24 "Hg10 mi
4:20 AM39 °FClear.10 mph81%30.27 "Hg10 mi
3:20 AM39 °FClear.9 mph81%30.27 "Hg10 mi
2:50 AM39 °FClear.8 mph81%30.27 "Hg10 mi
2:20 AM39 °FClear.8 mph87%30.27 "Hg10 mi
1:50 AM39 °FClear.7 mph87%30.27 "Hg10 mi
1:20 AM39 °FClear.7 mph87%30.27 "Hg10 mi
12:50 AM39 °FClear.7 mph87%30.27 "Hg10 mi
12:20 AM41 °FClear.7 mph81%30.27 "Hg10 mi
11:50 PM
Sat, Apr 30
39 °FPassing clouds.7 mph87%30.27 "HgN/A
11:20 PM41 °FPassing clouds.7 mph81%30.27 "HgN/A
10:50 PM41 °FPassing clouds.7 mph76%30.27 "HgN/A
Weather by CustomWeather, © 2016

See weather overviewHow to use our weather pages